• In Lithuania
  • List of Countries
  • For 7 days
  • Water Temperature
  • Satellite Maps
  • Weather Map
  • Weather Widgets
  • user-avatar
    Login

    Hourly Weather Koudougou

    Today, 19 September, Wednesday

    Time Temperature Precipitation Wind Pressure Humidity
    00:00 +29°C° 0 mm 2 mps 732 mmHg 66%
    01:00 +29°C° 0 mm 3 mps 732 mmHg 69%
    02:00 +28°C° 0 mm 3 mps 731 mmHg 71%
    03:00 +28°C° 0 mm 3 mps 731 mmHg 74%
    04:00 +27°C° 0 mm 3 mps 731 mmHg 76%
    05:00 +27°C° 0 mm 3 mps 731 mmHg 78%
    06:00 +27°C° 0 mm 2 mps 732 mmHg 81%
    07:00 +28°C° 0 mm 3 mps 732 mmHg 76%
    08:00 +30°C° 0 mm 3 mps 733 mmHg 72%
    09:00 +31°C° 0 mm 3 mps 733 mmHg 67%
    10:00 +33°C° 0 mm 3 mps 733 mmHg 62%
    11:00 +35°C° 0 mm 2 mps 733 mmHg 57%
    12:00 +36°C° 0 mm 2 mps 733 mmHg 50%
    13:00 +36°C° 0 mm 1 mps 732 mmHg 49%
    14:00 +36°C° 0 mm 1 mps 732 mmHg 47%
    15:00 +36°C° 0 mm 1 mps 731 mmHg 46%
    16:00 +35°C° 0 mm 1 mps 731 mmHg 50%
    17:00 +34°C° 0 mm 1 mps 731 mmHg 54%
    18:00 +34°C° 0 mm 2 mps 731 mmHg 59%
    19:00 +32°C° 0 mm 2 mps 731 mmHg 61%
    20:00 +33°C° 0 mm 3 mps 731 mmHg 64%
    21:00 +31°C° 0 mm 3 mps 732 mmHg 67%
    22:00 +30°C° 0.8 mm 3 mps 732 mmHg 71%
    23:00 +29°C° 0.8 mm 2 mps 732 mmHg 75%

    Tomorrow, 20 September, Thursday

    Time Temperature Precipitation Wind Pressure Humidity
    00:00 +28°C° 0.8 mm 2 mps 732 mmHg 79%
    01:00 +28°C° 0.3 mm 1 mps 732 mmHg 80%
    02:00 +28°C° 0.3 mm 1 mps 731 mmHg 80%
    03:00 +26°C° 0.3 mm 0 mps 731 mmHg 80%
    04:00 +28°C° 0 mm 1 mps 731 mmHg 80%
    05:00 +28°C° 0 mm 2 mps 731 mmHg 81%
    06:00 +28°C° 0 mm 3 mps 731 mmHg 81%
    07:00 +29°C° 0 mm 2 mps 732 mmHg 76%
    08:00 +30°C° 0 mm 2 mps 733 mmHg 70%
    09:00 +31°C° 0 mm 1 mps 733 mmHg 65%
    10:00 +33°C° 0 mm 1 mps 733 mmHg 58%
    11:00 +34°C° 0 mm 1 mps 733 mmHg 52%
    12:00 +35°C° 0 mm 1 mps 733 mmHg 45%
    13:00 +36°C° 0 mm 1 mps 732 mmHg 43%
    14:00 +36°C° 0 mm 1 mps 731 mmHg 41%
    15:00 +36°C° 0 mm 1 mps 730 mmHg 38%
    16:00 +35°C° 0 mm 1 mps 730 mmHg 43%
    17:00 +35°C° 0 mm 2 mps 730 mmHg 47%
    18:00 +34°C° 0 mm 2 mps 729 mmHg 51%
    19:00 +32°C° 0 mm 2 mps 730 mmHg 52%
    20:00 +31°C° 0 mm 1 mps 731 mmHg 53%
    21:00 +31°C° 0 mm 1 mps 731 mmHg 54%
    22:00 +30°C° 0 mm 1 mps 731 mmHg 56%
    23:00 +30°C° 0 mm 2 mps 731 mmHg 58%

    Day after tomorrow, 21 September, Friday

    Time Temperature Precipitation Wind Pressure Humidity
    00:00 +30°C° 0 mm 2 mps 731 mmHg 60%
    01:00 +29°C° 0.1 mm 2 mps 731 mmHg 63%
    02:00 +29°C° 0.1 mm 2 mps 731 mmHg 67%
    03:00 +28°C° 0.1 mm 2 mps 730 mmHg 70%
    04:00 +28°C° 0.4 mm 2 mps 731 mmHg 74%
    05:00 +27°C° 0.4 mm 2 mps 731 mmHg 78%
    06:00 +27°C° 0.4 mm 2 mps 731 mmHg 81%
    07:00 +28°C° 0 mm 3 mps 732 mmHg 78%
    08:00 +29°C° 0 mm 3 mps 732 mmHg 74%
    09:00 +31°C° 0 mm 3 mps 732 mmHg 70%
    10:00 +33°C° 0 mm 3 mps 732 mmHg 63%
    11:00 +35°C° 0 mm 3 mps 732 mmHg 57%
    12:00 +36°C° 0 mm 3 mps 732 mmHg 51%
    13:00 +37°C° 0 mm 3 mps 731 mmHg 48%
    14:00 +37°C° 0 mm 2 mps 730 mmHg 45%
    15:00 +37°C° 0 mm 1 mps 729 mmHg 43%
    16:00 +36°C° 0 mm 1 mps 729 mmHg 47%
    17:00 +35°C° 0 mm 1 mps 729 mmHg 51%
    18:00 +34°C° 0 mm 1 mps 729 mmHg 56%
    19:00 +34°C° 0 mm 2 mps 730 mmHg 57%
    20:00 +32°C° 0 mm 2 mps 731 mmHg 59%
    21:00 +31°C° 0 mm 3 mps 731 mmHg 60%
    22:00 +30°C° 0.2 mm 3 mps 731 mmHg 64%
    23:00 +30°C° 0.2 mm 3 mps 731 mmHg 69%

    22 September, Saturday

    Time Temperature Precipitation Wind Pressure Humidity
    00:00 +29°C° 0.2 mm 3 mps 731 mmHg 73%
    01:00 +28°C° 2.6 mm 3 mps 731 mmHg 78%
    02:00 +27°C° 2.6 mm 3 mps 731 mmHg 82%
    03:00 +26°C° 2.6 mm 3 mps 731 mmHg 87%
    04:00 +27°C° 0.1 mm 2 mps 732 mmHg 85%
    05:00 +27°C° 0.1 mm 2 mps 732 mmHg 83%
    06:00 +27°C° 0.1 mm 1 mps 732 mmHg 82%
    07:00 +29°C° 0 mm 2 mps 732 mmHg 76%
    08:00 +30°C° 0 mm 3 mps 733 mmHg 70%
    09:00 +31°C° 0 mm 3 mps 733 mmHg 64%
    10:00 +33°C° 0 mm 3 mps 733 mmHg 58%
    11:00 +34°C° 0 mm 3 mps 732 mmHg 52%
    12:00 +36°C° 0 mm 3 mps 732 mmHg 46%
    13:00 +36°C° 0 mm 3 mps 731 mmHg 44%
    14:00 +37°C° 0 mm 2 mps 731 mmHg 42%
    15:00 +37°C° 0 mm 2 mps 730 mmHg 40%
    16:00 +35°C° 0 mm 1 mps 730 mmHg 46%
    17:00 +34°C° 0 mm 1 mps 730 mmHg 52%
    18:00 +31°C° 0 mm 0 mps 730 mmHg 58%
    19:00 +32°C° 0 mm 1 mps 731 mmHg 57%
    20:00 +31°C° 0 mm 1 mps 732 mmHg 56%
    21:00 +31°C° 0 mm 1 mps 732 mmHg 56%
    22:00 +30°C° 0 mm 2 mps 732 mmHg 58%
    23:00 +30°C° 0 mm 3 mps 732 mmHg 61%

    23 September, Sunday

    Time Temperature Precipitation Wind Pressure Humidity
    00:00 +29°C° 0 mm 3 mps 731 mmHg 64%
    01:00 +29°C° 0.1 mm 3 mps 731 mmHg 67%
    02:00 +28°C° 0.1 mm 3 mps 731 mmHg 70%
    03:00 +28°C° 0.1 mm 2 mps 731 mmHg 73%
    04:00 +28°C° 0.4 mm 2 mps 731 mmHg 75%
    05:00 +27°C° 0.4 mm 2 mps 732 mmHg 77%
    06:00 +27°C° 0.4 mm 2 mps 732 mmHg 79%
    07:00 +28°C° 0 mm 2 mps 732 mmHg 75%
    08:00 +30°C° 0 mm 3 mps 732 mmHg 70%
    09:00 +31°C° 0 mm 3 mps 733 mmHg 66%
    10:00 +34°C° 0 mm 3 mps 732 mmHg 60%
    11:00 +35°C° 0 mm 3 mps 732 mmHg 55%
    12:00 +36°C° 0 mm 3 mps 732 mmHg 49%
    13:00 +37°C° 0 mm 2 mps 731 mmHg 46%
    14:00 +38°C° 0 mm 2 mps 730 mmHg 44%
    15:00 +38°C° 0 mm 2 mps 730 mmHg 41%
    16:00 +37°C° 0 mm 2 mps 730 mmHg 45%
    17:00 +36°C° 0 mm 2 mps 730 mmHg 49%
    18:00 +35°C° 0 mm 2 mps 730 mmHg 52%
    19:00 +34°C° 0.4 mm 3 mps 731 mmHg 56%
    20:00 +33°C° 0.4 mm 4 mps 732 mmHg 61%
    21:00 +32°C° 0.4 mm 4 mps 732 mmHg 65%
    22:00 +30°C° 0.1 mm 5 mps 732 mmHg 70%
    23:00 +29°C° 0.1 mm 5 mps 732 mmHg 76%

    24 September, Monday

    Time Temperature Precipitation Wind Pressure Humidity
    00:00 +28°C° 0.1 mm 6 mps 732 mmHg 82%
    01:00 +27°C° 0.8 mm 4 mps 731 mmHg 83%
    02:00 +27°C° 0.8 mm 3 mps 731 mmHg 85%
    03:00 +27°C° 0.8 mm 2 mps 730 mmHg 87%
    04:00 +26°C° 0 mm 2 mps 731 mmHg 86%
    05:00 +26°C° 0 mm 3 mps 731 mmHg 86%
    06:00 +26°C° 0 mm 3 mps 731 mmHg 85%
    07:00 +28°C° 0 mm 3 mps 732 mmHg 80%
    08:00 +29°C° 0 mm 3 mps 732 mmHg 74%
    09:00 +30°C° 0 mm 4 mps 733 mmHg 68%
    10:00 +33°C° 0 mm 4 mps 732 mmHg 62%
    11:00 +35°C° 0 mm 4 mps 732 mmHg 56%
    12:00 +36°C° 0 mm 3 mps 732 mmHg 49%
    13:00 +37°C° 0 mm 3 mps 731 mmHg 47%
    14:00 +37°C° 0 mm 2 mps 730 mmHg 45%
    15:00 +38°C° 0 mm 2 mps 730 mmHg 42%
    16:00 +37°C° 0 mm 2 mps 730 mmHg 46%
    17:00 +36°C° 0 mm 2 mps 730 mmHg 51%
    18:00 +34°C° 0 mm 1 mps 730 mmHg 55%
    19:00 +32°C° 1.7 mm 2 mps 731 mmHg 62%
    20:00 +31°C° 1.7 mm 2 mps 731 mmHg 68%
    21:00 +29°C° 1.7 mm 3 mps 732 mmHg 75%
    22:00 +29°C° 0.6 mm 3 mps 732 mmHg 76%
    23:00 +28°C° 0.6 mm 3 mps 732 mmHg 78%
    Show more